Location: Acequia del Cap
(41.7000°N, 0.6167°E)
Time: 00:51:31
(UTC+00:00)

CZ-2D R/B - Pass Details

Date: 07 August 2020
Orbit: 792 x 845 km, 98.7° (Epoch: 22 September)

Event Time Altitude Azimuth Distance (km) Brightness Sun altitude
Rises 02:11:03 0° 7° (N) 3,408 6.4 -24.9°
Reaches altitude 10° 02:13:30 10° 2° (N) 2,472 5.4 -24.7°
Maximum altitude 02:18:44 47° 290° (WNW) 1,107 2.6 -24.1°
Enters shadow 02:19:23 45° 269° (W) 1,140 2.6 -24.0°
